Weather History for KIAG - February, 2013

Change the Weather History Date:

Sunday, February 17, 2013

  Actual Average Record
Temperature  
Mean Temperature 16 °F -  
Max Temperature 21 °F 32 °F 57 °F (2006)
Min Temperature 12 °F 18 °F -7 °F (2015)
Degree Days  
Heating Degree Days 48    
Moisture  
Dew Point 8 °F    
Average Humidity 73    
Maximum Humidity 93    
Minimum Humidity 58    
Precipitation  
Precipitation 0.02 in - - ()
Snow  
Snow 0.00 in - - ()
Snow Depth 3.00 in    
Sea Level Pressure  
Sea Level Pressure 30.03 in    
Wind  
Wind Speed 13 mph (NNW)    
Max Wind Speed 22 mph    
Max Gust Speed 26 mph    
Visibility 7 miles    
Events Fog , Snow    
Averages and records for this station are not official NWS values.
T = Trace of Precipitation, MM = Missing Value Source: NWS Daily Summary

Daily Weather History Graph

Daily Weather History Graph

Search for Another Location

Airport or City:

Trip Planner

Search our weather history database for the weather conditions in past years. The results will help you decide how hot, cold, wet, or windy it might be!

Date:

Astronomy

Feb. 17, 2013 Rise Set
Actual Time 7:10 AM EST 5:49 PM EST
Civil Twilight 6:41 AM EST 6:18 PM EST
Nautical Twilight 6:07 AM EST 6:52 PM EST
Astronomical Twilight 5:35 AM EST 7:25 PM EST
Moon 10:49 AM EST (2/17) 12:56 AM EST (2/17)
Length of Visible Light 11h 37m
Length of Day
10h 39m
Waxing Crescent, 49% of the Moon is Illuminated
Feb 17
Waxing Crescent
Feb 17
First Quarter
Feb 25
Full
Mar 4
Last Quarter
Mar 11
New

Hourly Weather History & Observations

Time (EST) Temp. Windchill Dew Point Humidity Pressure Visibility Wind Dir Wind Speed Gust Speed Precip Events Conditions
12:09 AM 21.2 °F 9.5 °F 17.6 °F 86% 29.90 in 0.8 mi North 11.5 mph - 0.00 in Snow Light Snow
12:14 AM 21.2 °F 7.3 °F 17.6 °F 86% 29.90 in 0.5 mi North 16.1 mph - 0.00 in Fog , Snow Snow
12:49 AM 21.2 °F 9.5 °F 17.6 °F 86% 29.91 in 0.8 mi North 11.5 mph - 0.01 in Snow Light Snow
12:53 AM 21.0 °F 8.1 °F 17.1 °F 85% 29.96 in 0.8 mi North 13.8 mph - 0.01 in Snow Light Snow
1:01 AM 21.2 °F 9.5 °F 17.6 °F 86% 29.91 in 1.0 mi NNE 11.5 mph - 0.00 in Snow Light Snow
1:17 AM 21.2 °F 10.1 °F 17.6 °F 86% 29.91 in 1.0 mi North 10.4 mph - 0.00 in Snow Light Snow
1:42 AM 21.2 °F 10.1 °F 17.6 °F 86% 29.91 in 1.2 mi NNE 10.4 mph - 0.01 in Snow Light Snow
1:48 AM 21.2 °F 10.1 °F 17.6 °F 86% 29.91 in 1.5 mi North 10.4 mph - 0.01 in Snow Light Snow
1:53 AM 21.0 °F 10.6 °F 17.1 °F 85% 29.96 in 1.5 mi North 9.2 mph - 0.01 in Snow Light Snow
2:24 AM 19.4 °F 7.9 °F 17.6 °F 93% 29.91 in 1.0 mi North 10.4 mph - 0.00 in Snow Light Snow
2:35 AM 19.4 °F 8.6 °F 17.6 °F 93% 29.91 in 0.8 mi North 9.2 mph - 0.00 in Snow Light Snow
2:44 AM 19.4 °F 8.6 °F 17.6 °F 93% 29.91 in 1.2 mi North 9.2 mph - 0.00 in Snow Light Snow
2:53 AM 19.9 °F 9.3 °F 17.1 °F 89% 29.97 in 1.2 mi North 9.2 mph - 0.00 in Snow Light Snow
3:01 AM 19.4 °F 7.9 °F 17.6 °F 93% 29.92 in 1.0 mi North 10.4 mph - 0.00 in Snow Light Snow
3:31 AM 19.4 °F 7.2 °F 15.8 °F 86% 29.92 in 1.5 mi North 11.5 mph - 0.00 in Snow Light Snow
3:53 AM 19.0 °F 6.1 °F 15.1 °F 85% 29.99 in 2.0 mi North 12.7 mph - 0.00 in Snow Light Snow
4:07 AM 19.4 °F 7.9 °F 14.0 °F 80% 29.93 in 5.0 mi North 10.4 mph - 0.00 in Snow Light Snow
4:53 AM 18.0 °F 6.1 °F 10.0 °F 71% 30.00 in 10.0 mi North 10.4 mph - 0.00 in   Overcast
5:11 AM 17.6 °F 4.3 °F 8.6 °F 68% 29.95 in 10.0 mi North 12.7 mph - 0.00 in   Overcast
5:53 AM 17.1 °F 3.6 °F 10.0 °F 74% 30.02 in 10.0 mi North 12.7 mph - 0.00 in   Overcast
6:53 AM 12.9 °F 2.6 °F 7.0 °F 77% 30.04 in 9.0 mi North 6.9 mph - N/A   Scattered Clouds
7:02 AM 12.2 °F 2.9 °F 6.8 °F 79% 29.98 in 10.0 mi North 5.8 mph - N/A   Scattered Clouds
7:28 AM 12.2 °F -0.2 °F 6.8 °F 79% 29.99 in 10.0 mi NNW 9.2 mph - N/A   Mostly Cloudy
7:53 AM 12.9 °F -1.6 °F 7.0 °F 77% 30.06 in 10.0 mi North 12.7 mph - N/A   Mostly Cloudy
7:55 AM 12.2 °F -1.0 °F 6.8 °F 79% 29.99 in 10.0 mi North 10.4 mph - 0.00 in Snow Light Snow
8:53 AM 12.0 °F -3.4 °F 5.0 °F 73% 30.07 in 7.0 mi North 13.8 mph 21.9 mph 0.00 in Snow Light Snow
9:44 AM 12.2 °F -4.8 °F 3.2 °F 67% 30.02 in 7.0 mi NNW 17.3 mph - 0.00 in   Mostly Cloudy
9:53 AM 12.0 °F -5.6 °F 3.0 °F 67% 30.09 in 8.0 mi NNW 18.4 mph - 0.00 in   Mostly Cloudy
10:13 AM 12.2 °F -5.3 °F 3.2 °F 67% 30.03 in 8.0 mi North 18.4 mph 26.5 mph 0.00 in Snow Light Snow
10:42 AM 12.2 °F -4.8 °F 1.4 °F 62% 30.03 in 8.0 mi NNW 17.3 mph - 0.00 in   Mostly Cloudy
10:53 AM 12.0 °F -4.5 °F 3.0 °F 67% 30.10 in 8.0 mi NNW 16.1 mph - 0.00 in   Mostly Cloudy
11:16 AM 12.2 °F -3.7 °F 3.2 °F 67% 30.04 in 7.0 mi North 15.0 mph - 0.00 in Snow Light Snow
11:51 AM 12.2 °F -3.7 °F 1.4 °F 62% 30.04 in 10.0 mi NNW 15.0 mph - 0.00 in   Mostly Cloudy
11:53 AM 12.0 °F -3.4 °F 1.9 °F 64% 30.11 in 10.0 mi NNW 13.8 mph - 0.00 in   Mostly Cloudy
12:18 PM 12.2 °F -4.3 °F 3.2 °F 67% 30.04 in 8.0 mi NW 16.1 mph - 0.00 in Snow Light Snow
12:53 PM 12.0 °F -5.6 °F 3.0 °F 67% 30.11 in 8.0 mi NW 18.4 mph - 0.00 in Snow Light Snow
1:02 PM 12.2 °F -4.3 °F 1.4 °F 62% 30.05 in 8.0 mi NW 16.1 mph - 0.00 in   Mostly Cloudy
1:23 PM 12.2 °F -5.8 °F 3.2 °F 67% 30.05 in 8.0 mi WNW 19.6 mph - 0.00 in Snow Light Snow
1:29 PM 12.2 °F -3.1 °F 3.2 °F 67% 30.05 in 8.0 mi NW 13.8 mph - 0.00 in   Mostly Cloudy
1:47 PM 12.2 °F -5.3 °F 3.2 °F 67% 30.05 in 8.0 mi NW 18.4 mph 26.5 mph 0.00 in   Mostly Cloudy
1:53 PM 12.9 °F -3.9 °F 3.0 °F 65% 30.12 in 9.0 mi NW 17.3 mph - 0.00 in   Mostly Cloudy
2:24 PM 14.0 °F -0.8 °F 3.2 °F 62% 30.04 in 10.0 mi WNW 13.8 mph - 0.00 in Snow Light Snow
2:53 PM 14.0 °F 0.5 °F 5.0 °F 67% 30.11 in 7.0 mi WNW 11.5 mph - 0.00 in Snow Light Snow
3:34 PM 15.8 °F 2.7 °F 3.2 °F 58% 30.04 in 9.0 mi WNW 11.5 mph - 0.00 in   Overcast
3:53 PM 15.1 °F -0.6 °F 5.0 °F 64% 30.11 in 10.0 mi NW 16.1 mph - 0.00 in   Mostly Cloudy
4:53 PM 16.0 °F 0.6 °F 3.9 °F 59% 30.12 in 10.0 mi WNW 16.1 mph - N/A   Overcast
5:53 PM 15.1 °F -2.9 °F 3.9 °F 61% 30.15 in 7.0 mi WNW 21.9 mph - N/A   Mostly Cloudy
6:53 PM 14.0 °F 0.5 °F 1.9 °F 59% 30.18 in 10.0 mi WNW 11.5 mph - N/A   Mostly Cloudy
7:53 PM 12.9 °F -2.8 °F 1.9 °F 62% 30.21 in 10.0 mi WNW 15.0 mph - N/A   Mostly Cloudy
8:14 PM 12.2 °F -3.7 °F 1.4 °F 62% 30.13 in 9.0 mi WNW 15.0 mph - 0.00 in Snow Light Snow
8:40 PM 14.0 °F -0.2 °F 3.2 °F 62% 30.14 in 10.0 mi WNW 12.7 mph - 0.00 in   Mostly Cloudy
8:53 PM 12.9 °F 0.7 °F 3.0 °F 65% 30.22 in 10.0 mi WNW 9.2 mph - 0.00 in   Scattered Clouds
9:53 PM 12.9 °F 1.6 °F 1.9 °F 62% 30.25 in 10.0 mi NW 8.1 mph - N/A   Mostly Cloudy
10:53 PM 14.0 °F 2.0 °F 3.9 °F 64% 30.26 in 10.0 mi WNW 9.2 mph - N/A   Mostly Cloudy
11:33 PM 14.0 °F 2.0 °F 5.0 °F 67% 30.20 in 10.0 mi NW 9.2 mph - N/A   Overcast